FLOCK 2'-8

Last updated on Tue Aug 02 2016 17:39:13 GMT+0000 (Coordinated Universal Time)

1 41613U 16040Q 16215.22314892 .00000884 00000-0 44451-4 0 9994 2 41613 97.5053 274.1636 0013574 115.5740 244.6900 15.19810703 6183
UTC large
Height (km)
Speed (km/s)
/
Latitude / Longitude
Inclination (degrees)
Orbital Period (minutes)
Azimuth
Elevation
Range (km)
Doppler Factor

Next 0 passes for location: London (51.5072 / 0.1276)

Sorry there are no passes over London.